SWR72 LSZH-KIAD

Flight info

Callsign SWR72
Flight time N/A
Altitude 38000
Route VEBIT1T VEBIT T51 LASUN DCT RLP UL613 SOVAT L613 SANDY UN601 LESTA UP6 RODOL UL28 PENIL M144 BAGSO DCT DOGAL NATF SAXAN N550A TOPPS DCT KAYCC DCT KYLOH DCT BAF HYPER9
Aircraft A339/H-VGDW/C

Departure

Time N/A
Airport Zürich Airport (LSZH)

Arrival

Time 2026-05-03 20:20
Airport Washington Dulles International Airport (KIAD)
Time Latitude Longitude Altitude Speed Heading
2026-05-03 20:15 38.80131 -77.35575 3104 ft 217 kts 195°
2026-05-03 20:15 38.79325 -77.35853 3002 ft 210 kts 207°
2026-05-03 20:15 38.78489 -77.36417 2870 ft 203 kts 221°
2026-05-03 20:15 38.77576 -77.37700 2718 ft 187 kts 253°
2026-05-03 20:16 38.77443 -77.39251 2663 ft 171 kts 289°
2026-05-03 20:16 38.77828 -77.40257 2603 ft 165 kts 309°
2026-05-03 20:16 38.78579 -77.41222 2538 ft 166 kts 320°
2026-05-03 20:16 38.79469 -77.42154 2462 ft 166 kts 320°
2026-05-03 20:17 38.80382 -77.43051 2329 ft 165 kts 330°
2026-05-03 20:17 38.81448 -77.43506 2251 ft 159 kts 344°
2026-05-03 20:17 38.82527 -77.43617 2184 ft 154 kts 356°
2026-05-03 20:17 38.83609 -77.43617 2082 ft 156 kts 354°
2026-05-03 20:18 38.84687 -77.43684 1901 ft 153 kts 354°
2026-05-03 20:18 38.85717 -77.43718 1721 ft 145 kts 354°
2026-05-03 20:18 38.86718 -77.43716 1513 ft 139 kts 354°
2026-05-03 20:18 38.87671 -77.43706 1286 ft 136 kts 356°
2026-05-03 20:19 38.88609 -77.43685 1079 ft 133 kts 354°
2026-05-03 20:19 38.89539 -77.43684 917 ft 134 kts 355°
2026-05-03 20:19 38.90469 -77.43670 755 ft 134 kts 355°
2026-05-03 20:19 38.91405 -77.43654 562 ft 134 kts 356°
2026-05-03 20:20 38.92341 -77.43640 380 ft 134 kts 356°
2026-05-03 20:20 38.93245 -77.43626 320 ft 121 kts 354°
2026-05-03 20:20 38.93929 -77.43623 317 ft 71 kts
2026-05-03 20:20 38.94278 -77.43619 313 ft 36 kts 355°
2026-05-03 20:21 38.94478 -77.43697 312 ft 22 kts 331°
2026-05-03 20:21 38.94617 -77.43800 310 ft 23 kts 332°
2026-05-03 20:21 38.94774 -77.43855 308 ft 23 kts 356°
2026-05-03 20:21 38.94898 -77.43855 308 ft 12 kts
2026-05-03 20:22 38.94987 -77.43856 306 ft 8 kts 346°
2026-05-03 20:22 38.95015 -77.43930 305 ft 11 kts 276°
2026-05-03 20:22 38.95022 -77.44044 305 ft 14 kts 272°
2026-05-03 20:22 38.95024 -77.44199 302 ft 19 kts 271°
2026-05-03 20:23 38.95026 -77.44373 302 ft 19 kts 271°
2026-05-03 20:23 38.95027 -77.44546 302 ft 19 kts 271°
2026-05-03 20:23 38.95029 -77.44726 299 ft 20 kts 270°
2026-05-03 20:23 38.95031 -77.44898 299 ft 16 kts 271°
2026-05-03 20:24 38.95031 -77.44998 299 ft 10 kts 270°
2026-05-03 20:24 38.95023 -77.45075 299 ft 7 kts 238°
2026-05-03 20:24 38.94969 -77.45104 300 ft 8 kts 189°
2026-05-03 20:24 38.94936 -77.45110 301 ft 1 kts 189°
2026-05-03 20:25 38.94933 -77.45111 301 ft 0 kts 189°